Flag for Germany Weather past 2 weeks in Rotenburg (Wümme), Lower Saxony, Germany

Now
59 °F

Overcast.


Feels Like: 57 °F
Forecast: 52 / 59 °F
Wind: 8 mph from Southwest

Location: Bremen

Current Time: Sep 4, 2015 at 9:54:23 PM

Latest Report: Sep 4, 2015 at 9:00 PM


Visibility: 14 mi

Pressure: 29.78 "Hg

Humidity: 73%

Dew point: 50 °F

Location of Rotenburg (Wümme)Location

Historic Weather in Rotenburg (Wümme) — Graph

°F

Rotenburg (Wümme) temperature yesterday

Maximum temperature yesterday: 66 °F (at 5:00 PM)
Minimum temperature yesterday: 47 °F (at 3:00 AM)
Average temperature yesterday: 55 °F

Past Weeks' High & Low Weather Summary

 TemperatureHumidityPressure
High84 °F (Aug 31, 6:00 PM)100% (Aug 29, 3:00 AM)30.28 "Hg (Aug 29, 3:00 AM)
Low47 °F (Sep 3, 3:00 AM)33% (Aug 22, 2:00 PM)29.56 "Hg (Aug 24, 7:00 PM)
Average64 °F76%29.95 "Hg
* Reported Aug 20 9:00 PM — Sep 4 9:00 PM, Rotenburg (Wümme), Weather by CustomWeather, © 2015

Note: Actual official high and low records may vary slightly from our data, if they occured in-between our weather recording intervals... More about our weather records

Advertising

Rotenburg (Wümme) weather history for previous 24 hours

 ConditionsComfort  
Time TempWeatherWind HumidityBarometerVisibility
9:00 PM
Fri, Sep 4
59 °FOvercast.8 mph73%29.78 "Hg14 mi
8:00 PM59 °FOvercast.7 mph73%29.79 "Hg16 mi
7:00 PM61 °FOvercast.7 mph67%29.80 "Hg19 mi
6:00 PM61 °FOvercast.7 mph69%29.80 "Hg7 mi
5:00 PM61 °FOvercast.8 mph68%29.82 "Hg19 mi
4:00 PM62 °FOvercast.8 mph69%29.84 "Hg19 mi
3:00 PM62 °FOvercast.8 mph66%29.85 "Hg22 mi
2:00 PM61 °FOvercast.8 mph67%29.86 "Hg19 mi
1:00 PM60 °FOvercast.8 mph69%29.86 "Hg16 mi
12:00 PM60 °FOvercast.9 mph68%29.87 "Hg11 mi
11:00 AM57 °FOvercast.7 mph76%29.87 "Hg14 mi
10:00 AM56 °FLight rain. Overcast.8 mph78%29.87 "Hg9 mi
9:00 AM54 °FOvercast.6 mph83%29.88 "Hg11 mi
8:00 AM52 °FPartly sunny.5 mph91%29.88 "Hg11 mi
7:00 AM50 °FScattered clouds.5 mph94%29.88 "Hg6 mi
6:00 AM50 °FPassing clouds.3 mph94%29.89 "Hg11 mi
5:00 AM51 °FPassing clouds.3 mph94%29.90 "Hg14 mi
4:00 AM51 °FOvercast.3 mph93%29.90 "Hg14 mi
3:00 AM51 °FOvercast.3 mph93%29.90 "Hg14 mi
2:00 AM51 °FPassing clouds.3 mph91%29.91 "Hg14 mi
1:00 AM51 °FPassing clouds.3 mph94%29.92 "Hg12 mi
11:00 PM
Thu, Sep 3
52 °FPassing clouds.3 mph92%29.91 "Hg16 mi
10:00 PM53 °FPassing clouds.3 mph88%29.92 "Hg22 mi
9:00 PM53 °FPassing clouds.2 mph89%29.91 "Hg19 mi
Weather by CustomWeather, © 2015

See weather overviewHow to use our weather pages